| time (UTC) | temp C | wind direction | speed KPH | gust KPH | rain 1hr cm | rain 24hr cm | rain mn cm | humidity % | barometer mb |
| 20260503231532 | 15 | 41 | 0.0 | 3.2 | 0.00 | 0.03 | 0.03 | 61 | 1017.1 |
| 20260503230031 | 15 | 41 | 0.0 | 1.6 | 0.00 | 0.03 | 0.03 | 56 | 1017.0 |
| 20260503224532 | 16 | 42 | 0.0 | 8.0 | 0.00 | 0.03 | 0.03 | 55 | 1016.9 |
| 20260503223030 | 16 | 13 | 3.2 | 6.4 | 0.00 | 0.03 | 0.03 | 50 | 1017.0 |
| 20260503221529 | 17 | 63 | 0.0 | 4.8 | 0.00 | 0.03 | 0.03 | 52 | 1016.9 |
| 20260503220028 | 17 | 85 | 1.6 | 3.2 | 0.00 | 0.03 | 0.03 | 47 | 1017.0 |
| 20260503214527 | 17 | 85 | 0.0 | 6.4 | 0.00 | 0.03 | 0.03 | 44 | 1017.0 |
| 20260503213027 | 17 | 43 | 0.0 | 8.0 | 0.00 | 0.03 | 0.03 | 46 | 1017.1 |
| 20260503211528 | 17 | 40 | 0.0 | 8.0 | 0.00 | 0.03 | 0.03 | 44 | 1017.2 |
| 20260503210027 | 17 | 59 | 3.2 | 11.3 | 0.00 | 0.03 | 0.03 | 46 | 1017.3 |
| 20260503204528 | 17 | 40 | 1.6 | 6.4 | 0.00 | 0.03 | 0.03 | 47 | 1017.4 |
| 20260503203032 | 17 | 78 | 3.2 | 6.4 | 0.00 | 0.03 | 0.03 | 46 | 1017.7 |
| 20260503201526 | 17 | 21 | 1.6 | 12.9 | 0.00 | 0.03 | 0.03 | 46 | 1017.9 |
| 20260503200025 | 17 | 14 | 4.8 | 11.3 | 0.00 | 0.03 | 0.03 | 45 | 1018.1 |
| 20260503194523 | 17 | 360 | 4.8 | 12.9 | 0.00 | 0.03 | 0.03 | 43 | 1018.3 |
| 20260503193023 | 17 | 38 | 6.4 | 16.1 | 0.00 | 0.03 | 0.03 | 42 | 1018.5 |
| 20260503191523 | 18 | 5 | 4.8 | 9.7 | 0.00 | 0.03 | 0.03 | 43 | 1018.9 |
| 20260503190024 | 17 | 351 | 3.2 | 9.7 | 0.00 | 0.03 | 0.03 | 46 | 1018.9 |
| 20260503184520 | 18 | 340 | 4.8 | 9.7 | 0.00 | 0.03 | 0.03 | 43 | 1019.0 |
| 20260503183021 | 18 | 346 | 1.6 | 6.4 | 0.00 | 0.03 | 0.03 | 43 | 1019.1 |
| 20260503181517 | 17 | 61 | 3.2 | 8.0 | 0.00 | 0.03 | 0.03 | 40 | 1019.4 |
| 20260503180017 | 17 | 320 | 3.2 | 6.4 | 0.00 | 0.03 | 0.03 | 40 | 1019.4 |
| 20260503174519 | 18 | 221 | 1.6 | 6.4 | 0.00 | 0.03 | 0.03 | 39 | 1019.5 |
| 20260503173014 | 17 | 36 | 3.2 | 8.0 | 0.00 | 0.03 | 0.03 | 39 | 1019.6 |
| 20260503171514 | 17 | 56 | 3.2 | 9.7 | 0.00 | 0.03 | 0.03 | 43 | 1020.1 |
| 20260503081545 | 0 | 330 | 0.0 | 3.2 | 0.00 | 0.00 | 0.00 | 95 | 1018.4 |
| 20260503071547 | 1 | 330 | 0.0 | 1.6 | 0.00 | 0.00 | 0.00 | 94 | 1017.9 |
| 20260503070126 | 1 | 330 | 0.0 | 1.6 | 0.00 | 0.00 | 0.00 | 94 | 1017.7 |
| 20260503054524 | 1 | 330 | 0.0 | 3.2 | 0.00 | 0.00 | 0.00 | 93 | 1017.5 |
| 20260503053018 | 1 | 330 | 0.0 | 4.8 | 0.00 | 0.00 | 0.00 | 93 | 1017.6 |
| 20260503051520 | 1 | 330 | 0.0 | 3.2 | 0.00 | 0.00 | 0.00 | 92 | 1017.6 |
| 20260503050014 | 2 | 330 | 0.0 | 1.6 | 0.00 | 0.00 | 0.00 | 92 | 1017.5 |
| 20260503044519 | 2 | 330 | 0.0 | 1.6 | 0.00 | 0.00 | 0.00 | 92 | 1017.3 |
| 20260503043014 | 2 | 330 | 0.0 | 1.6 | 0.00 | 0.00 | 0.00 | 91 | 1017.2 |
| 20260503041507 | 2 | 330 | 0.0 | 3.2 | 0.00 | 0.00 | 0.00 | 91 | 1016.9 |
| 20260503040006 | 2 | 330 | 0.0 | 1.6 | 0.00 | 0.00 | 0.00 | 90 | 1017.0 |
| 20260503034502 | 2 | 330 | 0.0 | 3.2 | 0.00 | 0.00 | 0.00 | 89 | 1016.8 |
| 20260503033100 | 3 | 330 | 0.0 | 3.2 | 0.00 | 0.00 | 0.00 | 88 | 1016.7 |
| 20260503031557 | 3 | 330 | 0.0 | 1.6 | 0.00 | 0.00 | 0.00 | 87 | 1016.5 |
| 20260503030100 | 3 | 330 | 0.0 | 1.6 | 0.00 | 0.00 | 0.00 | 86 | 1016.3 |
| 20260503024551 | 4 | 330 | 0.0 | 3.2 | 0.00 | 0.00 | 0.00 | 85 | 1016.2 |
| 20260503023055 | 4 | 330 | 0.0 | 3.2 | 0.00 | 0.00 | 0.00 | 84 | 1016.0 |
| 20260503021555 | 5 | 330 | 0.0 | 1.6 | 0.00 | 0.00 | 0.00 | 82 | 1015.9 |
| 20260503020045 | 5 | 330 | 0.0 | 1.6 | 0.00 | 0.00 | 0.00 | 81 | 1015.8 |
| 20260503014540 | 6 | 330 | 0.0 | 1.6 | 0.00 | 0.00 | 0.00 | 78 | 1015.6 |
| 20260503013039 | 6 | 330 | 0.0 | 3.2 | 0.00 | 0.00 | 0.00 | 77 | 1015.4 |
| 20260503011545 | 7 | 330 | 0.0 | 3.2 | 0.00 | 0.00 | 0.00 | 74 | 1015.0 |
| 20260503010036 | 7 | 330 | 1.6 | 3.2 | 0.00 | 0.00 | 0.00 | 74 | 1014.8 |
| 20260503004527 | 8 | 330 | 0.0 | 4.8 | 0.00 | 0.00 | 0.00 | 71 | 1014.5 |
| 20260503003025 | 9 | 113 | 0.0 | 6.4 | 0.00 | 0.00 | 0.00 | 68 | 1014.3 |
| 20260503001523 | 10 | 319 | 0.0 | 8.0 | 0.00 | 0.00 | 0.00 | 62 | 1014.0 |
| 20260503000036 | 11 | 199 | 1.6 | 4.8 | 0.00 | 0.00 | 0.00 | 54 | 1013.7 |
| 20260502234522 | 11 | 173 | 1.6 | 4.8 | 0.00 | 0.00 | 0.00 | 49 | 1013.3 |
| 20260502233018 | 11 | 170 | 0.0 | 8.0 | 0.00 | 0.00 | 0.00 | 49 | 1013.2 |